Lewistown, MT

10:50 PM MDT on July 25, 2017 (GMT -0600)
Lewistown Municipal

Weather History for KLWT - October, 2011

Change the Weather History Date:

Saturday, October 8, 2011

  Actual Average Record
Temperature  
Mean Temperature 46 °F 46 °F  
Max Temperature 52 °F 60 °F 84 °F (1980)
Min Temperature 39 °F 33 °F 8 °F (1985)
Degree Days  
Heating Degree Days 19 19  
Month to date heating degree days 67 139  
Since 1 July heating degree days 333 616  
Cooling Degree Days 0 0  
Month to date cooling degree days 5 0  
Year to date cooling degree days 215 210  
Moisture  
Dew Point 37 °F    
Average Humidity 75    
Maximum Humidity 100    
Minimum Humidity 50    
Precipitation  
Precipitation 0.01 in 0.04 in 0.42 in (1975)
Month to date precipitation 1.90 0.34  
Year to date precipitation 20.59 14.69  
Snow  
Snow 0.00 in - - ()
Snow Depth 0.00 in    
Sea Level Pressure  
Sea Level Pressure 30.19 in    
Wind  
Wind Speed 5 mph (West)    
Max Wind Speed 13 mph    
Max Gust Speed 15 mph    
Visibility 10 miles    
Events Rain    
T = Trace of Precipitation, MM = Missing Value Source: NWS Daily Summary

Daily Weather History Graph

Daily Weather History Graph

Search for Another Location

Airport or City:

Trip Planner

Search our weather history database for the weather conditions in past years. The results will help you decide how hot, cold, wet, or windy it might be!

Date:

Astronomy

Oct. 08, 2011 Rise Set
Actual Time 7:25 AM MDT 6:44 PM MDT
Civil Twilight 6:55 AM MDT 7:14 PM MDT
Nautical Twilight 6:20 AM MDT 7:49 PM MDT
Astronomical Twilight 5:44 AM MDT 8:25 PM MDT
Moon 5:03 PM MDT (10/8) 4:06 AM MDT (10/8)
Length of Visible Light 12h 19m
Length of Day
11h 18m
Waxing Gibbous, 90% of the Moon is Illuminated
Oct 8
Waxing Gibbous
Oct 11
Full
Oct 19
Last Quarter
Oct 26
New
Nov 2
First Quarter

Hourly Weather History & Observations

Time (MDT) Temp. Windchill Dew Point Humidity Pressure Visibility Wind Dir Wind Speed Gust Speed Precip Events Conditions
12:08 AM 39.2 °F 32.5 °F 39.2 °F 100% 30.02 in 10.0 mi WNW 10.4 mph - 0.00 in Rain Light Rain
12:36 AM 39.2 °F 32.0 °F 39.2 °F 100% 30.03 in 10.0 mi WNW 11.5 mph - 0.01 in Rain Light Rain
12:54 AM 39.9 °F 33.4 °F 39.0 °F 97% 30.06 in 10.0 mi WNW 10.4 mph - 0.01 in Rain Light Rain
1:19 AM 39.2 °F 33.6 °F 39.2 °F 100% 30.06 in 10.0 mi WNW 8.1 mph - 0.00 in Rain Light Rain
1:26 AM 39.2 °F 33.0 °F 39.2 °F 100% 30.06 in 10.0 mi WNW 9.2 mph - 0.00 in Rain Light Rain
1:54 AM 39.9 °F 34.5 °F 39.0 °F 97% 30.10 in 10.0 mi West 8.1 mph - 0.00 in   Overcast
2:08 AM 39.2 °F 33.6 °F 39.2 °F 100% 30.08 in 10.0 mi WNW 8.1 mph - N/A   Overcast
2:54 AM 39.9 °F 35.1 °F 39.0 °F 97% 30.13 in 10.0 mi West 6.9 mph - 0.01 in Rain Light Rain
3:31 AM 39.2 °F 31.6 °F 39.2 °F 100% 30.11 in 10.0 mi West 12.7 mph - 0.00 in   Overcast
3:44 AM 39.2 °F 32.5 °F 39.2 °F 100% 30.12 in 10.0 mi West 10.4 mph - 0.00 in   Overcast
3:54 AM 39.9 °F 33.4 °F 39.0 °F 97% 30.14 in 10.0 mi West 10.4 mph - 0.00 in   Overcast
4:43 AM 39.2 °F 33.6 °F 39.2 °F 100% 30.13 in 10.0 mi West 8.1 mph - N/A   Overcast
4:54 AM 39.9 °F 34.5 °F 39.0 °F 97% 30.16 in 10.0 mi West 8.1 mph - N/A   Overcast
5:02 AM 39.2 °F 33.0 °F 39.2 °F 100% 30.13 in 10.0 mi WNW 9.2 mph - N/A   Overcast
5:18 AM 39.2 °F 33.6 °F 39.2 °F 100% 30.14 in 10.0 mi West 8.1 mph - N/A   Overcast
5:42 AM 39.2 °F 33.0 °F 39.2 °F 100% 30.14 in 10.0 mi West 9.2 mph - N/A   Overcast
5:51 AM 39.2 °F 34.2 °F 39.2 °F 100% 30.14 in 10.0 mi WNW 6.9 mph - N/A   Overcast
5:54 AM 39.9 °F 35.1 °F 39.0 °F 97% 30.18 in 10.0 mi WNW 6.9 mph - N/A   Overcast
6:54 AM 39.9 °F 37.8 °F 37.9 °F 93% 30.22 in 10.0 mi West 3.5 mph - N/A   Overcast
7:54 AM 39.9 °F 36.7 °F 37.9 °F 93% 30.25 in 10.0 mi West 4.6 mph - N/A   Overcast
8:12 AM 39.2 °F 37.0 °F 37.4 °F 93% 30.23 in 10.0 mi South 3.5 mph - N/A   Overcast
8:20 AM 39.2 °F 37.0 °F 37.4 °F 93% 30.24 in 10.0 mi SSW 3.5 mph - N/A   Overcast
8:54 AM 42.1 °F 38.4 °F 39.0 °F 89% 30.28 in 10.0 mi WSW 5.8 mph - N/A   Overcast
9:02 AM 42.8 °F 38.6 °F 39.2 °F 87% 30.25 in 10.0 mi West 6.9 mph - N/A   Overcast
9:54 AM 43.0 °F 37.7 °F 39.0 °F 86% 30.27 in 10.0 mi WNW 9.2 mph - N/A   Clear
10:36 AM 44.6 °F 40.7 °F 39.2 °F 81% 30.26 in 10.0 mi WNW 6.9 mph - N/A   Mostly Cloudy
11:24 AM 44.6 °F 40.2 °F 37.4 °F 76% 30.26 in 10.0 mi WNW 8.1 mph - N/A   Mostly Cloudy
11:54 AM 45.0 °F 41.2 °F 37.0 °F 74% 30.29 in 10.0 mi West 6.9 mph - N/A   Mostly Cloudy
12:14 PM 44.6 °F 40.7 °F 35.6 °F 71% 30.26 in 10.0 mi WNW 6.9 mph - N/A   Mostly Cloudy
12:30 PM 46.4 °F 44.3 °F 35.6 °F 66% 30.26 in 10.0 mi West 4.6 mph - N/A   Overcast
12:44 PM 46.4 °F 42.9 °F 35.6 °F 66% 30.27 in 10.0 mi West 6.9 mph - N/A   Mostly Cloudy
12:54 PM 48.0 °F - 36.0 °F 63% 30.29 in 10.0 mi WSW 4.6 mph - N/A   Scattered Clouds
1:54 PM 48.0 °F - 33.1 °F 56% 30.28 in 10.0 mi Variable 3.5 mph - N/A   Clear
2:54 PM 48.9 °F - 34.0 °F 56% 30.26 in 10.0 mi Calm Calm - N/A   Overcast
3:54 PM 50.0 °F - 33.1 °F 52% 30.25 in 10.0 mi Calm Calm - N/A   Clear
4:54 PM 51.1 °F - 34.0 °F 52% 30.24 in 10.0 mi West 3.5 mph - N/A   Clear
5:54 PM 50.0 °F - 33.1 °F 52% 30.23 in 10.0 mi Calm Calm - N/A   Clear
6:54 PM 48.0 °F - 34.0 °F 58% 30.24 in 10.0 mi Calm Calm - N/A   Clear
7:54 PM 41.0 °F 38.0 °F 36.0 °F 82% 30.26 in 10.0 mi SSE 4.6 mph - N/A   Mostly Cloudy
8:54 PM 39.0 °F 34.8 °F 35.1 °F 86% 30.26 in 10.0 mi ESE 5.8 mph - N/A   Partly Cloudy
9:54 PM 42.1 °F 37.1 °F 35.1 °F 76% 30.25 in 10.0 mi ESE 8.1 mph - N/A   Mostly Cloudy
10:54 PM 44.1 °F 39.5 °F 35.1 °F 71% 30.22 in 10.0 mi East 8.1 mph - N/A   Overcast
11:54 PM 41.0 °F - 34.0 °F 76% 30.22 in 10.0 mi Calm Calm - N/A   Partly Cloudy